Time,TemperatureF,DewpointF,PressureIn,WindDirection,WindDirectionDegrees,WindSpeedMPH,WindSpeedGustMPH,Humidity,HourlyPrecipIn,Conditions,Clouds,dailyrainin,SoftwareType,DateUTC
2013-09-12 00:01:00,66.3,65.4,29.91,WSW,240,0.0,0.0,97,0.00,,,0.16,Wunderground v.1.15,2013-09-12 04:01:00,
2013-09-12 00:02:00,66.3,65.4,29.91,WSW,240,0.0,0.0,97,0.00,,,0.16,Wunderground v.1.15,2013-09-12 04:02:00,
2013-09-12 00:03:00,66.3,65.4,29.90,WSW,240,0.0,0.0,97,0.00,,,0.16,Wunderground v.1.15,2013-09-12 04:03:00,
2013-09-12 00:09:00,66.2,65.3,29.89,WSW,240,1.0,1.0,97,0.00,,,0.16,Wunderground v.1.15,2013-09-12 04:09:00,
2013-09-12 00:14:00,66.2,65.3,29.89,WSW,240,0.0,1.0,97,0.00,,,0.16,Wunderground v.1.15,2013-09-12 04:14:00,
2013-09-12 00:19:00,66.1,65.2,29.89,WSW,240,0.0,0.0,97,0.00,,,0.16,Wunderground v.1.15,2013-09-12 04:19:00,
2013-09-12 00:21:00,66.1,65.2,29.88,WSW,240,0.0,0.0,97,0.00,,,0.16,Wunderground v.1.15,2013-09-12 04:21:00,
2013-09-12 00:22:00,66.1,65.2,29.88,WSW,240,0.0,0.0,97,0.00,,,0.16,Wunderground v.1.15,2013-09-12 04:22:00,
2013-09-12 00:27:00,66.1,65.2,29.87,WSW,240,0.0,0.0,97,0.00,,,0.16,Wunderground v.1.15,2013-09-12 04:27:00,
2013-09-12 00:33:00,66.1,65.2,29.86,SSE,159,0.0,1.0,97,0.00,,,0.16,Wunderground v.1.15,2013-09-12 04:33:00,
2013-09-12 00:38:00,66.1,65.2,29.87,SSE,159,0.0,1.0,97,0.00,,,0.16,Wunderground v.1.15,2013-09-12 04:38:00,
2013-09-12 00:43:00,66.0,65.1,29.89,SSE,159,0.0,0.0,97,0.00,,,0.16,Wunderground v.1.15,2013-09-12 04:43:00,
2013-09-12 00:48:00,66.0,65.1,29.89,SSE,161,0.0,1.0,97,0.00,,,0.16,Wunderground v.1.15,2013-09-12 04:48:00,
2013-09-12 00:54:00,66.0,65.1,29.90,SSE,161,0.0,1.0,97,0.00,,,0.16,Wunderground v.1.15,2013-09-12 04:54:00,
2013-09-12 00:59:00,66.0,65.1,29.90,SSE,161,0.0,0.0,97,0.00,,,0.16,Wunderground v.1.15,2013-09-12 04:59:00,
2013-09-12 01:04:00,66.0,65.1,29.90,SSE,161,0.0,0.0,97,0.00,,,0.16,Wunderground v.1.15,2013-09-12 05:04:00,
2013-09-12 01:10:00,65.9,65.0,29.89,SSE,161,0.0,0.0,97,0.00,,,0.16,Wunderground v.1.15,2013-09-12 05:10:00,
2013-09-12 01:15:00,65.9,65.0,29.90,SSE,161,0.0,0.0,97,0.00,,,0.16,Wunderground v.1.15,2013-09-12 05:15:00,
2013-09-12 01:20:00,65.8,64.9,29.89,SSE,161,0.0,0.0,97,0.00,,,0.16,Wunderground v.1.15,2013-09-12 05:20:00,
2013-09-12 01:26:00,65.7,64.8,29.89,SSE,161,0.0,0.0,97,0.00,,,0.16,Wunderground v.1.15,2013-09-12 05:26:00,
2013-09-12 01:31:00,65.7,64.8,29.89,SSE,161,0.0,0.0,97,0.00,,,0.16,Wunderground v.1.15,2013-09-12 05:31:00,
2013-09-12 01:36:00,65.7,64.8,29.88,SSE,161,0.0,0.0,97,0.00,,,0.16,Wunderground v.1.15,2013-09-12 05:36:00,
2013-09-12 01:41:00,65.6,64.7,29.88,SSE,161,0.0,0.0,97,0.00,,,0.16,Wunderground v.1.15,2013-09-12 05:41:00,
2013-09-12 01:46:00,65.6,64.7,29.88,SSE,161,0.0,1.0,97,0.00,,,0.16,Wunderground v.1.15,2013-09-12 05:46:00,
2013-09-12 01:51:00,65.5,64.6,29.88,SSE,161,0.0,0.0,97,0.00,,,0.16,Wunderground v.1.15,2013-09-12 05:51:00,
2013-09-12 01:56:00,65.6,64.7,29.87,SSE,161,0.0,0.0,97,0.00,,,0.16,Wunderground v.1.15,2013-09-12 05:56:00,
2013-09-12 02:01:00,65.6,64.7,29.87,SSE,161,0.0,1.0,97,0.00,,,0.16,Wunderground v.1.15,2013-09-12 06:01:00,
2013-09-12 02:06:00,65.6,64.7,29.87,SW,219,5.0,5.0,97,0.00,,,0.16,Wunderground v.1.15,2013-09-12 06:06:00,
2013-09-12 02:11:00,65.7,64.5,29.87,SW,225,0.0,1.0,96,0.00,,,0.16,Wunderground v.1.15,2013-09-12 06:11:00,
2013-09-12 02:16:00,65.8,64.6,29.87,ENE,77,0.0,3.0,96,0.00,,,0.16,Wunderground v.1.15,2013-09-12 06:16:00,
2013-09-12 02:21:00,65.9,64.7,29.87,SW,225,1.0,2.0,96,0.00,,,0.16,Wunderground v.1.15,2013-09-12 06:21:00,
2013-09-12 02:27:00,66.1,64.6,29.87,ESE,111,0.0,3.0,95,0.00,,,0.16,Wunderground v.1.15,2013-09-12 06:27:00,
2013-09-12 02:32:00,66.3,64.5,29.87,SSW,206,1.0,3.0,94,0.00,,,0.16,Wunderground v.1.15,2013-09-12 06:32:00,
2013-09-12 02:37:00,66.5,64.4,29.87,NE,36,1.0,3.0,93,0.00,,,0.16,Wunderground v.1.15,2013-09-12 06:37:00,
2013-09-12 02:42:00,66.7,64.6,29.87,NNW,332,0.0,4.0,93,0.00,,,0.16,Wunderground v.1.15,2013-09-12 06:42:00,
2013-09-12 02:47:00,67.0,64.6,29.87,South,190,0.0,4.0,92,0.00,,,0.16,Wunderground v.1.15,2013-09-12 06:47:00,
2013-09-12 02:52:00,67.1,64.7,29.87,WNW,300,0.0,5.0,92,0.00,,,0.16,Wunderground v.1.15,2013-09-12 06:52:00,
2013-09-12 02:57:00,67.2,64.8,29.88,SSW,203,0.0,5.0,92,0.00,,,0.16,Wunderground v.1.15,2013-09-12 06:57:00,
2013-09-12 03:02:00,67.3,64.9,29.88,WSW,241,0.0,3.0,92,0.00,,,0.16,Wunderground v.1.15,2013-09-12 07:02:00,
2013-09-12 03:07:00,67.3,65.2,29.89,NNE,13,0.0,3.0,93,0.00,,,0.16,Wunderground v.1.15,2013-09-12 07:07:00,
2013-09-12 03:12:00,67.1,65.0,29.89,NNE,13,0.0,1.0,93,0.00,,,0.16,Wunderground v.1.15,2013-09-12 07:12:00,
2013-09-12 03:17:00,67.0,64.9,29.88,NNE,13,0.0,1.0,93,0.00,,,0.16,Wunderground v.1.15,2013-09-12 07:17:00,
2013-09-12 03:22:00,66.7,64.9,29.88,NNE,13,0.0,1.0,94,0.00,,,0.16,Wunderground v.1.15,2013-09-12 07:22:00,
2013-09-12 03:27:00,66.6,64.8,29.88,North,11,0.0,1.0,94,0.00,,,0.16,Wunderground v.1.15,2013-09-12 07:27:00,
2013-09-12 03:32:00,66.7,64.9,29.88,ESE,107,1.0,2.0,94,0.00,,,0.16,Wunderground v.1.15,2013-09-12 07:32:00,
2013-09-12 03:37:00,66.8,65.0,29.88,SE,134,2.0,3.0,94,0.00,,,0.16,Wunderground v.1.15,2013-09-12 07:37:00,
2013-09-12 03:42:00,67.0,65.2,29.88,ESE,116,0.0,3.0,94,0.00,,,0.16,Wunderground v.1.15,2013-09-12 07:42:00,
2013-09-12 03:47:00,67.1,65.3,29.88,NNW,340,2.0,3.0,94,0.00,,,0.16,Wunderground v.1.15,2013-09-12 07:47:00,
2013-09-12 03:52:00,67.2,65.1,29.88,SSW,192,1.0,3.0,93,0.00,,,0.16,Wunderground v.1.15,2013-09-12 07:52:00,
2013-09-12 03:57:00,67.4,65.3,29.88,SW,234,0.0,3.0,93,0.00,,,0.16,Wunderground v.1.15,2013-09-12 07:57:00,
2013-09-12 04:02:00,67.5,65.4,29.88,SSW,204,0.0,5.0,93,0.00,,,0.16,Wunderground v.1.15,2013-09-12 08:02:00,
2013-09-12 04:07:00,67.6,65.5,29.88,SE,133,1.0,5.0,93,0.00,,,0.16,Wunderground v.1.15,2013-09-12 08:07:00,
2013-09-12 04:12:00,67.9,65.5,29.87,ESE,111,1.0,5.0,92,0.00,,,0.16,Wunderground v.1.15,2013-09-12 08:12:00,
2013-09-12 04:17:00,68.1,65.4,29.87,SW,229,0.0,5.0,91,0.00,,,0.16,Wunderground v.1.15,2013-09-12 08:17:00,
2013-09-12 04:22:00,68.2,65.5,29.87,NE,55,1.0,4.0,91,0.00,,,0.16,Wunderground v.1.15,2013-09-12 08:22:00,
2013-09-12 04:28:00,68.2,65.2,29.86,ESE,117,0.0,4.0,90,0.00,,,0.16,Wunderground v.1.15,2013-09-12 08:28:00,
2013-09-12 04:33:00,68.4,65.4,29.86,East,98,0.0,6.0,90,0.00,,,0.16,Wunderground v.1.15,2013-09-12 08:33:00,
2013-09-12 04:38:00,68.5,65.4,29.86,East,99,1.0,6.0,90,0.00,,,0.16,Wunderground v.1.15,2013-09-12 08:38:00,
2013-09-12 04:43:00,68.6,65.2,29.86,WNW,299,2.0,3.0,89,0.00,,,0.16,Wunderground v.1.15,2013-09-12 08:43:00,
2013-09-12 04:48:00,68.7,65.3,29.86,West,274,1.0,6.0,89,0.00,,,0.16,Wunderground v.1.15,2013-09-12 08:48:00,
2013-09-12 04:53:00,68.9,65.5,29.86,SSE,161,2.0,4.0,89,0.00,,,0.16,Wunderground v.1.15,2013-09-12 08:53:00,
2013-09-12 04:58:00,68.9,65.5,29.86,SSE,163,2.0,2.0,89,0.00,,,0.16,Wunderground v.1.15,2013-09-12 08:58:00,
2013-09-12 05:03:00,68.9,65.5,29.86,SSW,211,0.0,3.0,89,0.00,,,0.16,Wunderground v.1.15,2013-09-12 09:03:00,
2013-09-12 05:08:00,69.0,65.6,29.86,South,188,1.0,4.0,89,0.00,,,0.16,Wunderground v.1.15,2013-09-12 09:08:00,
2013-09-12 05:13:00,69.1,65.4,29.86,SE,141,1.0,6.0,88,0.00,,,0.16,Wunderground v.1.15,2013-09-12 09:13:00,
2013-09-12 05:18:00,69.2,65.5,29.86,NNE,26,1.0,6.0,88,0.00,,,0.16,Wunderground v.1.15,2013-09-12 09:18:00,
2013-09-12 05:23:00,69.4,65.7,29.86,ESE,113,1.0,4.0,88,0.00,,,0.16,Wunderground v.1.15,2013-09-12 09:23:00,
2013-09-12 05:28:00,69.4,65.7,29.86,NW,313,1.0,2.0,88,0.00,,,0.16,Wunderground v.1.15,2013-09-12 09:28:00,
2013-09-12 05:33:00,69.4,65.7,29.86,SW,230,1.0,3.0,88,0.00,,,0.16,Wunderground v.1.15,2013-09-12 09:33:00,
2013-09-12 05:38:00,69.5,65.8,29.87,SW,215,2.0,2.0,88,0.00,,,0.16,Wunderground v.1.15,2013-09-12 09:38:00,
2013-09-12 05:43:00,69.7,66.0,29.87,SW,226,3.0,4.0,88,0.00,,,0.16,Wunderground v.1.15,2013-09-12 09:43:00,
2013-09-12 05:48:00,69.7,66.3,29.87,West,267,0.0,0.0,89,0.00,,,0.16,Wunderground v.1.15,2013-09-12 09:48:00,
2013-09-12 05:53:00,69.6,66.2,29.88,NNW,329,0.0,3.0,89,0.00,,,0.16,Wunderground v.1.15,2013-09-12 09:53:00,
2013-09-12 05:58:00,69.5,66.1,29.87,NNW,330,0.0,1.0,89,0.00,,,0.16,Wunderground v.1.15,2013-09-12 09:58:00,
2013-09-12 06:03:00,69.4,66.0,29.87,NNW,342,1.0,2.0,89,0.00,,,0.16,Wunderground v.1.15,2013-09-12 10:03:00,
2013-09-12 06:08:00,69.2,66.1,29.88,NW,304,0.0,0.0,90,0.00,,,0.16,Wunderground v.1.15,2013-09-12 10:08:00,
2013-09-12 06:13:00,69.0,65.9,29.87,NW,304,0.0,1.0,90,0.00,,,0.16,Wunderground v.1.15,2013-09-12 10:13:00,
2013-09-12 06:18:00,68.8,66.1,29.87,NW,304,0.0,0.0,91,0.00,,,0.16,Wunderground v.1.15,2013-09-12 10:18:00,
2013-09-12 06:23:00,68.6,65.9,29.87,NW,307,0.0,1.0,91,0.00,,,0.16,Wunderground v.1.15,2013-09-12 10:23:00,
2013-09-12 06:28:00,68.4,65.7,29.87,NW,316,0.0,0.0,91,0.00,,,0.16,Wunderground v.1.15,2013-09-12 10:28:00,
2013-09-12 06:33:00,68.3,65.6,29.87,NW,316,0.0,1.0,91,0.00,,,0.16,Wunderground v.1.15,2013-09-12 10:33:00,
2013-09-12 06:38:00,68.2,65.8,29.86,NW,316,0.0,0.0,92,0.00,,,0.16,Wunderground v.1.15,2013-09-12 10:38:00,
2013-09-12 06:43:00,68.0,65.6,29.86,NW,316,0.0,0.0,92,0.00,,,0.16,Wunderground v.1.15,2013-09-12 10:43:00,
2013-09-12 06:48:00,67.9,65.5,29.86,South,190,0.0,2.0,92,0.00,,,0.16,Wunderground v.1.15,2013-09-12 10:48:00,
2013-09-12 06:53:00,68.0,65.6,29.86,South,190,1.0,2.0,92,0.00,,,0.16,Wunderground v.1.15,2013-09-12 10:53:00,
2013-09-12 06:58:00,68.0,65.6,29.86,South,190,0.0,0.0,92,0.00,,,0.16,Wunderground v.1.15,2013-09-12 10:58:00,
2013-09-12 07:03:00,68.0,65.9,29.86,South,190,0.0,0.0,93,0.00,,,0.16,Wunderground v.1.15,2013-09-12 11:03:00,
2013-09-12 07:08:00,68.0,65.9,29.86,SW,217,0.0,0.0,93,0.00,,,0.16,Wunderground v.1.15,2013-09-12 11:08:00,
2013-09-12 07:13:00,68.1,66.0,29.86,SSW,207,1.0,1.0,93,0.00,,,0.16,Wunderground v.1.15,2013-09-12 11:13:00,
2013-09-12 07:18:00,68.1,66.0,29.85,SSW,207,0.0,0.0,93,0.00,,,0.16,Wunderground v.1.15,2013-09-12 11:18:00,
2013-09-12 07:23:00,68.2,66.1,29.85,ESE,122,0.0,3.0,93,0.00,,,0.17,Wunderground v.1.15,2013-09-12 11:23:00,
2013-09-12 07:28:00,68.3,66.2,29.85,NE,52,0.0,1.0,93,0.12,,,0.18,Wunderground v.1.15,2013-09-12 11:28:00,
2013-09-12 07:33:00,68.4,66.3,29.85,NE,52,0.0,1.0,93,0.07,,,0.19,Wunderground v.1.15,2013-09-12 11:33:00,
2013-09-12 07:38:00,68.4,66.3,29.85,NE,52,0.0,0.0,93,0.07,,,0.19,Wunderground v.1.15,2013-09-12 11:38:00,
2013-09-12 07:43:00,68.5,66.7,29.86,NE,52,0.0,1.0,94,0.06,,,0.19,Wunderground v.1.15,2013-09-12 11:43:00,
2013-09-12 07:48:00,68.6,66.8,29.85,SW,220,1.0,1.0,94,1.54,,,0.26,Wunderground v.1.15,2013-09-12 11:48:00,
2013-09-12 07:54:00,68.5,66.7,29.85,East,80,0.0,1.0,94,0.13,,,0.27,Wunderground v.1.15,2013-09-12 11:54:00,
2013-09-12 07:59:00,68.4,66.6,29.85,East,80,0.0,1.0,94,0.06,,,0.27,Wunderground v.1.15,2013-09-12 11:59:00,
2013-09-12 08:04:00,68.4,66.9,29.85,SE,130,0.0,3.0,95,0.04,,,0.27,Wunderground v.1.15,2013-09-12 12:04:00,
2013-09-12 08:09:00,68.4,66.9,29.84,SE,129,0.0,1.0,95,0.04,,,0.28,Wunderground v.1.15,2013-09-12 12:09:00,
2013-09-12 08:14:00,68.4,66.9,29.84,SE,138,0.0,2.0,95,0.04,,,0.28,Wunderground v.1.15,2013-09-12 12:14:00,
2013-09-12 08:19:00,68.5,67.0,29.84,SSW,202,0.0,2.0,95,0.04,,,0.28,Wunderground v.1.15,2013-09-12 12:19:00,
2013-09-12 08:24:00,68.6,67.1,29.84,SSW,202,0.0,2.0,95,0.00,,,0.28,Wunderground v.1.15,2013-09-12 12:24:00,
2013-09-12 08:29:00,68.8,67.6,29.84,SSW,202,0.0,1.0,96,0.00,,,0.28,Wunderground v.1.15,2013-09-12 12:29:00,
2013-09-12 08:34:00,68.8,67.3,29.84,SSW,202,0.0,1.0,95,0.00,,,0.28,Wunderground v.1.15,2013-09-12 12:34:00,
2013-09-12 08:39:00,68.8,67.3,29.84,SSW,202,0.0,0.0,95,0.00,,,0.28,Wunderground v.1.15,2013-09-12 12:39:00,
2013-09-12 08:44:00,68.9,67.7,29.83,SSW,202,0.0,1.0,96,0.47,,,0.30,Wunderground v.1.15,2013-09-12 12:44:00,
2013-09-12 08:49:00,69.0,67.8,29.83,SSW,202,0.0,1.0,96,0.10,,,0.30,Wunderground v.1.15,2013-09-12 12:49:00,
2013-09-12 08:54:00,69.0,67.8,29.84,East,99,1.0,3.0,96,0.05,,,0.30,Wunderground v.1.15,2013-09-12 12:54:00,
2013-09-12 08:59:00,69.0,67.8,29.83,East,99,0.0,1.0,96,0.15,,,0.32,Wunderground v.1.15,2013-09-12 12:59:00,
2013-09-12 09:04:00,69.0,67.8,29.83,ESE,121,0.0,2.0,96,0.32,,,0.35,Wunderground v.1.15,2013-09-12 13:04:00,
2013-09-12 09:09:00,69.0,67.8,29.82,ESE,115,0.0,1.0,96,0.09,,,0.35,Wunderground v.1.15,2013-09-12 13:09:00,
2013-09-12 09:14:00,69.0,67.8,29.82,ESE,109,0.0,2.0,96,0.05,,,0.35,Wunderground v.1.15,2013-09-12 13:14:00,
2013-09-12 09:19:00,69.1,67.9,29.82,WSW,254,0.0,1.0,96,0.04,,,0.35,Wunderground v.1.15,2013-09-12 13:19:00,
2013-09-12 09:25:00,69.4,68.2,29.82,WSW,254,0.0,1.0,96,0.00,,,0.35,Wunderground v.1.15,2013-09-12 13:25:00,
2013-09-12 09:30:00,69.4,68.2,29.82,WSW,254,1.0,1.0,96,0.00,,,0.35,Wunderground v.1.15,2013-09-12 13:30:00,
2013-09-12 09:35:00,69.5,68.3,29.82,East,80,0.0,5.0,96,0.00,,,0.35,Wunderground v.1.15,2013-09-12 13:35:00,
2013-09-12 09:40:00,69.5,68.3,29.81,WSW,238,0.0,2.0,96,0.00,,,0.35,Wunderground v.1.15,2013-09-12 13:40:00,
2013-09-12 09:45:00,69.5,68.3,29.82,ESE,115,1.0,9.0,96,0.00,,,0.35,Wunderground v.1.15,2013-09-12 13:45:00,
2013-09-12 09:50:00,69.6,68.4,29.81,WNW,284,0.0,1.0,96,0.00,,,0.35,Wunderground v.1.15,2013-09-12 13:50:00,
2013-09-12 09:55:00,69.6,68.4,29.81,NE,38,0.0,3.0,96,0.00,,,0.35,Wunderground v.1.15,2013-09-12 13:55:00,
2013-09-12 10:00:00,69.7,68.5,29.81,NE,34,0.0,1.0,96,0.00,,,0.35,Wunderground v.1.15,2013-09-12 14:00:00,
2013-09-12 10:05:00,70.0,68.8,29.80,South,170,0.0,2.0,96,0.00,,,0.35,Wunderground v.1.15,2013-09-12 14:05:00,
2013-09-12 10:10:00,70.2,69.0,29.80,South,170,0.0,2.0,96,0.00,,,0.35,Wunderground v.1.15,2013-09-12 14:10:00,
2013-09-12 10:15:00,70.6,69.4,29.80,ENE,63,1.0,3.0,96,0.00,,,0.35,Wunderground v.1.15,2013-09-12 14:15:00,
2013-09-12 10:20:00,71.2,70.0,29.80,SSW,211,3.0,4.0,96,0.00,,,0.35,Wunderground v.1.15,2013-09-12 14:20:00,
2013-09-12 10:25:00,71.6,70.4,29.79,South,175,1.0,4.0,96,0.00,,,0.35,Wunderground v.1.15,2013-09-12 14:25:00,
2013-09-12 10:30:00,72.0,70.5,29.79,NW,321,0.0,3.0,95,0.00,,,0.35,Wunderground v.1.15,2013-09-12 14:30:00,
2013-09-12 10:35:00,72.2,70.4,29.79,ESE,109,1.0,5.0,94,0.00,,,0.35,Wunderground v.1.15,2013-09-12 14:35:00,
2013-09-12 10:40:00,72.4,69.9,29.79,SSW,210,0.0,5.0,92,0.00,,,0.35,Wunderground v.1.15,2013-09-12 14:40:00,
2013-09-12 10:45:00,72.8,70.7,29.79,SW,233,0.0,5.0,93,0.00,,,0.35,Wunderground v.1.15,2013-09-12 14:45:00,
2013-09-12 10:50:00,73.3,70.8,29.79,SW,224,0.0,2.0,92,0.00,,,0.35,Wunderground v.1.15,2013-09-12 14:50:00,
2013-09-12 10:55:00,73.9,71.7,29.79,WSW,238,0.0,2.0,93,0.00,,,0.35,Wunderground v.1.15,2013-09-12 14:55:00,
2013-09-12 11:00:00,74.3,71.8,29.79,NNE,32,0.0,3.0,92,0.00,,,0.35,Wunderground v.1.15,2013-09-12 15:00:00,
2013-09-12 11:05:00,74.6,71.5,29.79,SSW,204,0.0,3.0,90,0.00,,,0.35,Wunderground v.1.15,2013-09-12 15:05:00,
2013-09-12 11:10:00,74.8,71.3,29.79,NW,318,0.0,2.0,89,0.00,,,0.35,Wunderground v.1.15,2013-09-12 15:10:00,
2013-09-12 11:15:00,75.0,71.9,29.78,West,269,2.0,2.0,90,0.00,,,0.35,Wunderground v.1.15,2013-09-12 15:15:00,
2013-09-12 11:21:00,75.3,72.2,29.78,WNW,290,2.0,3.0,90,0.00,,,0.35,Wunderground v.1.15,2013-09-12 15:21:00,
2013-09-12 11:26:00,75.7,72.9,29.78,WNW,291,1.0,4.0,91,0.00,,,0.35,Wunderground v.1.15,2013-09-12 15:26:00,
2013-09-12 11:31:00,75.8,72.7,29.78,SSW,211,0.0,3.0,90,0.00,,,0.35,Wunderground v.1.15,2013-09-12 15:31:00,
2013-09-12 11:36:00,76.1,72.6,29.78,West,277,3.0,5.0,89,0.00,,,0.35,Wunderground v.1.15,2013-09-12 15:36:00,
2013-09-12 11:41:00,76.4,72.9,29.78,West,265,3.0,5.0,89,0.00,,,0.35,Wunderground v.1.15,2013-09-12 15:41:00,
2013-09-12 11:46:00,76.5,73.0,29.78,SSW,208,0.0,5.0,89,0.00,,,0.35,Wunderground v.1.15,2013-09-12 15:46:00,
2013-09-12 11:51:00,76.6,73.1,29.77,SW,230,2.0,6.0,89,0.00,,,0.35,Wunderground v.1.15,2013-09-12 15:51:00,
2013-09-12 11:56:00,76.5,72.7,29.78,NW,313,3.0,7.0,88,0.00,,,0.35,Wunderground v.1.15,2013-09-12 15:56:00,
2013-09-12 12:01:00,76.5,72.3,29.77,WSW,240,1.0,6.0,87,0.00,,,0.35,Wunderground v.1.15,2013-09-12 16:01:00,
2013-09-12 12:06:00,76.5,73.0,29.77,WNW,302,1.0,8.0,89,0.00,,,0.35,Wunderground v.1.15,2013-09-12 16:06:00,
2013-09-12 12:11:00,76.6,72.8,29.77,SW,224,2.0,5.0,88,0.00,,,0.35,Wunderground v.1.15,2013-09-12 16:11:00,
2013-09-12 12:16:00,76.9,72.7,29.77,South,173,2.0,5.0,87,0.00,,,0.35,Wunderground v.1.15,2013-09-12 16:16:00,
2013-09-12 12:21:00,77.1,72.6,29.77,South,178,1.0,3.0,86,0.00,,,0.35,Wunderground v.1.15,2013-09-12 16:21:00,
2013-09-12 12:26:00,77.4,73.2,29.76,NW,313,2.0,5.0,87,0.00,,,0.35,Wunderground v.1.15,2013-09-12 16:26:00,
2013-09-12 12:31:00,77.9,73.7,29.76,SW,236,2.0,6.0,87,0.00,,,0.35,Wunderground v.1.15,2013-09-12 16:31:00,
2013-09-12 12:36:00,78.0,72.8,29.76,West,274,1.0,6.0,84,0.00,,,0.35,Wunderground v.1.15,2013-09-12 16:36:00,
2013-09-12 12:41:00,78.2,73.7,29.75,WSW,253,2.0,5.0,86,0.00,,,0.35,Wunderground v.1.15,2013-09-12 16:41:00,
2013-09-12 12:46:00,78.5,73.3,29.75,SW,217,0.0,5.0,84,0.00,,,0.35,Wunderground v.1.15,2013-09-12 16:46:00,
2013-09-12 12:51:00,78.8,73.2,29.75,ESE,102,1.0,5.0,83,0.00,,,0.35,Wunderground v.1.15,2013-09-12 16:51:00,
2013-09-12 12:56:00,79.2,73.9,29.75,WSW,240,1.0,5.0,84,0.00,,,0.35,Wunderground v.1.15,2013-09-12 16:56:00,
2013-09-12 13:01:00,79.7,73.7,29.75,East,82,2.0,3.0,82,0.00,,,0.35,Wunderground v.1.15,2013-09-12 17:01:00,
2013-09-12 13:06:00,79.9,73.2,29.74,ESE,115,2.0,4.0,80,0.00,,,0.35,Wunderground v.1.15,2013-09-12 17:06:00,
2013-09-12 13:11:00,79.9,73.2,29.74,East,86,2.0,5.0,80,0.00,,,0.35,Wunderground v.1.15,2013-09-12 17:11:00,
2013-09-12 13:16:00,80.1,73.7,29.74,SSE,159,0.0,5.0,81,0.00,,,0.35,Wunderground v.1.15,2013-09-12 17:16:00,
2013-09-12 13:21:00,80.6,73.9,29.73,ESE,119,2.0,4.0,80,0.00,,,0.35,Wunderground v.1.15,2013-09-12 17:21:00,
2013-09-12 13:26:00,80.2,73.1,29.73,ENE,66,1.0,9.0,79,0.00,,,0.35,Wunderground v.1.15,2013-09-12 17:26:00,
2013-09-12 13:31:00,79.8,73.1,29.73,SSW,194,1.0,5.0,80,0.00,,,0.35,Wunderground v.1.15,2013-09-12 17:31:00,
2013-09-12 13:36:00,79.8,73.4,29.73,NNW,336,0.0,5.0,81,0.00,,,0.35,Wunderground v.1.15,2013-09-12 17:36:00,
2013-09-12 13:42:00,79.7,73.3,29.73,WNW,296,1.0,3.0,81,0.00,,,0.35,Wunderground v.1.15,2013-09-12 17:42:00,
2013-09-12 13:47:00,79.3,73.0,29.72,WSW,249,2.0,6.0,81,0.00,,,0.35,Wunderground v.1.15,2013-09-12 17:47:00,
2013-09-12 13:52:00,78.9,72.9,29.72,East,97,2.0,3.0,82,0.00,,,0.35,Wunderground v.1.15,2013-09-12 17:52:00,
2013-09-12 13:57:00,78.7,72.7,29.72,SSW,211,0.0,4.0,82,0.00,,,0.35,Wunderground v.1.15,2013-09-12 17:57:00,
2013-09-12 14:02:00,78.7,73.5,29.71,ESE,111,1.0,8.0,84,0.00,,,0.35,Wunderground v.1.15,2013-09-12 18:02:00,
2013-09-12 14:07:00,78.7,73.1,29.71,SE,125,2.0,8.0,83,0.00,,,0.35,Wunderground v.1.15,2013-09-12 18:07:00,
2013-09-12 14:12:00,78.5,73.3,29.69,SW,229,0.0,7.0,84,0.00,,,0.35,Wunderground v.1.15,2013-09-12 18:12:00,
2013-09-12 14:17:00,78.3,72.7,29.69,South,184,1.0,7.0,83,0.00,,,0.35,Wunderground v.1.15,2013-09-12 18:17:00,
2013-09-12 14:22:00,78.1,72.9,29.69,SSE,162,2.0,4.0,84,0.00,,,0.35,Wunderground v.1.15,2013-09-12 18:22:00,
2013-09-12 14:27:00,77.9,73.4,29.70,SE,139,1.0,4.0,86,0.00,,,0.35,Wunderground v.1.15,2013-09-12 18:27:00,
2013-09-12 14:32:00,77.5,73.0,29.70,NE,43,2.0,6.0,86,0.00,,,0.35,Wunderground v.1.15,2013-09-12 18:32:00,
2013-09-12 14:37:00,75.6,68.6,29.71,NNE,26,0.0,8.0,79,0.00,,,0.35,Wunderground v.1.15,2013-09-12 18:37:00,
2013-09-12 14:42:00,73.7,67.5,29.73,NE,36,4.0,4.0,81,0.00,,,0.00,Wunderground v.1.15,2013-09-12 18:42:00,
2013-09-12 14:47:00,72.1,67.0,29.74,NW,313,2.0,5.0,84,0.00,,,0.00,Wunderground v.1.15,2013-09-12 18:47:00,
2013-09-12 14:52:00,70.8,66.7,29.74,NW,312,1.0,3.0,87,0.31,,,0.02,Wunderground v.1.15,2013-09-12 18:52:00,
2013-09-12 14:57:00,69.8,66.4,29.73,East,89,0.0,4.0,89,0.13,,,0.03,Wunderground v.1.15,2013-09-12 18:57:00,
2013-09-12 15:02:00,69.0,66.3,29.74,WSW,252,0.0,4.0,91,0.31,,,0.06,Wunderground v.1.15,2013-09-12 19:02:00,
2013-09-12 15:07:00,68.4,66.0,29.73,SSE,154,0.0,5.0,92,0.12,,,0.07,Wunderground v.1.15,2013-09-12 19:07:00,
2013-09-12 15:12:00,68.0,65.9,29.71,ENE,71,0.0,2.0,93,0.44,,,0.17,Wunderground v.1.15,2013-09-12 19:12:00,
2013-09-12 15:17:00,67.9,66.1,29.70,ENE,71,1.0,2.0,94,3.05,,,0.27,Wunderground v.1.15,2013-09-12 19:17:00,
2013-09-12 15:22:00,67.8,66.3,29.70,ENE,72,0.0,2.0,95,0.82,,,0.38,Wunderground v.1.15,2013-09-12 19:22:00,
2013-09-12 15:27:00,67.7,66.2,29.69,ESE,107,0.0,2.0,95,0.24,,,0.42,Wunderground v.1.15,2013-09-12 19:27:00,
2013-09-12 15:32:00,67.7,66.2,29.69,ESE,107,1.0,2.0,95,0.09,,,0.42,Wunderground v.1.15,2013-09-12 19:32:00,
2013-09-12 15:37:00,67.8,66.6,29.68,SW,216,0.0,5.0,96,0.05,,,0.42,Wunderground v.1.15,2013-09-12 19:37:00,
2013-09-12 15:42:00,68.0,66.8,29.69,SW,216,0.0,1.0,96,0.04,,,0.42,Wunderground v.1.15,2013-09-12 19:42:00,
2013-09-12 15:47:00,68.2,67.0,29.69,SE,138,0.0,3.0,96,0.00,,,0.42,Wunderground v.1.15,2013-09-12 19:47:00,
2013-09-12 15:52:00,68.3,67.1,29.68,East,94,0.0,1.0,96,0.00,,,0.42,Wunderground v.1.15,2013-09-12 19:52:00,
2013-09-12 15:57:00,68.4,67.2,29.68,NNW,340,1.0,3.0,96,0.00,,,0.42,Wunderground v.1.15,2013-09-12 19:57:00,
2013-09-12 16:02:00,68.5,67.3,29.68,North,5,0.0,3.0,96,0.00,,,0.42,Wunderground v.1.15,2013-09-12 20:02:00,
2013-09-12 16:07:00,68.5,67.3,29.68,NW,308,1.0,3.0,96,0.00,,,0.42,Wunderground v.1.15,2013-09-12 20:07:00,
2013-09-12 16:12:00,68.4,67.2,29.69,NW,322,1.0,2.0,96,0.00,,,0.42,Wunderground v.1.15,2013-09-12 20:12:00,
2013-09-12 16:17:00,68.3,67.1,29.72,SW,234,2.0,6.0,96,0.16,,,0.46,Wunderground v.1.15,2013-09-12 20:17:00,
2013-09-12 16:22:00,68.2,67.0,29.72,NNE,30,0.0,8.0,96,4.57,,,0.73,Wunderground v.1.15,2013-09-12 20:22:00,
2013-09-12 16:27:00,67.8,66.3,29.72,NNE,31,0.0,8.0,95,0.57,,,0.90,Wunderground v.1.15,2013-09-12 20:27:00,
2013-09-12 16:33:00,67.6,66.4,29.72,East,82,2.0,2.0,96,2.44,,,1.03,Wunderground v.1.15,2013-09-12 20:33:00,
2013-09-12 16:38:00,67.3,66.1,29.69,NE,44,1.0,3.0,96,0.94,,,1.17,Wunderground v.1.15,2013-09-12 20:38:00,
2013-09-12 16:43:00,67.2,66.0,29.69,NNE,15,1.0,2.0,96,0.15,,,1.18,Wunderground v.1.15,2013-09-12 20:43:00,
2013-09-12 16:48:00,67.2,66.0,29.68,NNE,15,0.0,2.0,96,0.07,,,1.18,Wunderground v.1.15,2013-09-12 20:48:00,
2013-09-12 16:53:00,67.3,66.4,29.68,NNE,15,0.0,1.0,97,0.04,,,1.18,Wunderground v.1.15,2013-09-12 20:53:00,
2013-09-12 16:58:00,67.4,66.5,29.68,NNE,15,0.0,1.0,97,0.00,,,1.18,Wunderground v.1.15,2013-09-12 20:58:00,
2013-09-12 17:03:00,67.4,66.5,29.68,NNE,15,0.0,0.0,97,0.00,,,1.18,Wunderground v.1.15,2013-09-12 21:03:00,
2013-09-12 17:08:00,67.5,66.6,29.69,NNE,15,0.0,1.0,97,0.00,,,1.18,Wunderground v.1.15,2013-09-12 21:08:00,
2013-09-12 17:13:00,67.4,66.5,29.69,NNE,15,0.0,0.0,97,0.00,,,1.18,Wunderground v.1.15,2013-09-12 21:13:00,
2013-09-12 17:18:00,67.4,66.5,29.69,NNE,15,0.0,1.0,97,0.00,,,1.18,Wunderground v.1.15,2013-09-12 21:18:00,
2013-09-12 17:23:00,67.3,66.4,29.69,NNE,15,0.0,0.0,97,0.00,,,1.18,Wunderground v.1.15,2013-09-12 21:23:00,
2013-09-12 17:28:00,67.2,66.3,29.68,NNE,15,0.0,1.0,97,0.00,,,1.19,Wunderground v.1.15,2013-09-12 21:28:00,
2013-09-12 17:33:00,67.3,66.4,29.67,NNE,15,0.0,0.0,97,0.00,,,1.19,Wunderground v.1.15,2013-09-12 21:33:00,
2013-09-12 17:38:00,67.5,66.6,29.68,NNE,15,0.0,0.0,97,0.00,,,1.19,Wunderground v.1.15,2013-09-12 21:38:00,
2013-09-12 17:43:00,67.5,66.6,29.68,NNE,15,0.0,0.0,97,0.00,,,1.19,Wunderground v.1.15,2013-09-12 21:43:00,
2013-09-12 17:48:00,67.4,66.5,29.68,NNE,15,0.0,0.0,97,0.00,,,1.19,Wunderground v.1.15,2013-09-12 21:48:00,
2013-09-12 17:53:00,67.3,66.4,29.67,NNE,15,0.0,0.0,97,0.00,,,1.19,Wunderground v.1.15,2013-09-12 21:53:00,
2013-09-12 17:58:00,67.2,66.3,29.67,NNE,15,0.0,0.0,97,0.00,,,1.19,Wunderground v.1.15,2013-09-12 21:58:00,
2013-09-12 18:03:00,67.2,66.3,29.67,NNE,15,0.0,0.0,97,0.00,,,1.19,Wunderground v.1.15,2013-09-12 22:03:00,
2013-09-12 18:08:00,67.1,66.2,29.67,NNE,30,1.0,1.0,97,0.00,,,1.19,Wunderground v.1.15,2013-09-12 22:08:00,
2013-09-12 18:13:00,67.0,66.1,29.67,NNE,31,0.0,2.0,97,0.00,,,1.19,Wunderground v.1.15,2013-09-12 22:13:00,
2013-09-12 18:18:00,67.0,66.1,29.68,NNE,31,0.0,0.0,97,0.00,,,1.19,Wunderground v.1.15,2013-09-12 22:18:00,
2013-09-12 18:23:00,66.9,66.0,29.68,NNE,31,0.0,0.0,97,0.00,,,1.19,Wunderground v.1.15,2013-09-12 22:23:00,
2013-09-12 18:28:00,66.8,65.9,29.68,NNE,31,0.0,0.0,97,0.00,,,1.20,Wunderground v.1.15,2013-09-12 22:28:00,
2013-09-12 18:33:00,66.7,65.8,29.68,NNE,31,0.0,0.0,97,0.00,,,1.20,Wunderground v.1.15,2013-09-12 22:33:00,
2013-09-12 18:38:00,66.6,65.7,29.68,NNE,31,0.0,0.0,97,0.00,,,1.20,Wunderground v.1.15,2013-09-12 22:38:00,
2013-09-12 18:43:00,66.6,65.7,29.68,NNE,31,0.0,0.0,97,0.00,,,1.20,Wunderground v.1.15,2013-09-12 22:43:00,
2013-09-12 18:48:00,66.6,65.7,29.68,NNE,31,0.0,0.0,97,0.00,,,1.20,Wunderground v.1.15,2013-09-12 22:48:00,
2013-09-12 18:54:00,66.6,65.7,29.68,NNE,31,0.0,0.0,97,0.00,,,1.20,Wunderground v.1.15,2013-09-12 22:54:00,
2013-09-12 18:59:00,66.6,65.7,29.68,NNE,31,1.0,1.0,97,0.00,,,1.20,Wunderground v.1.15,2013-09-12 22:59:00,
2013-09-12 19:04:00,66.6,65.7,29.68,NNE,31,0.0,1.0,97,0.00,,,1.20,Wunderground v.1.15,2013-09-12 23:04:00,
2013-09-12 19:09:00,66.5,65.6,29.69,NNE,31,0.0,0.0,97,0.00,,,1.20,Wunderground v.1.15,2013-09-12 23:09:00,
2013-09-12 19:14:00,66.4,65.5,29.69,NNE,31,0.0,0.0,97,0.00,,,1.20,Wunderground v.1.15,2013-09-12 23:14:00,
2013-09-12 19:19:00,66.3,65.4,29.69,NNE,31,0.0,0.0,97,0.00,,,1.20,Wunderground v.1.15,2013-09-12 23:19:00,
2013-09-12 19:24:00,66.3,65.4,29.69,NNE,31,0.0,0.0,97,0.00,,,1.20,Wunderground v.1.15,2013-09-12 23:24:00,
2013-09-12 19:29:00,66.3,65.4,29.69,NNE,31,0.0,0.0,97,0.00,,,1.20,Wunderground v.1.15,2013-09-12 23:29:00,
2013-09-12 19:34:00,66.3,65.4,29.69,NNE,31,0.0,0.0,97,0.00,,,1.20,Wunderground v.1.15,2013-09-12 23:34:00,
2013-09-12 19:39:00,66.2,65.3,29.68,NNE,31,0.0,0.0,97,0.00,,,1.20,Wunderground v.1.15,2013-09-12 23:39:00,
2013-09-12 19:44:00,66.1,65.2,29.68,NNE,31,0.0,0.0,97,0.00,,,1.20,Wunderground v.1.15,2013-09-12 23:44:00,
2013-09-12 19:49:00,66.0,65.1,29.68,NNE,31,0.0,0.0,97,0.00,,,1.20,Wunderground v.1.15,2013-09-12 23:49:00,
2013-09-12 19:54:00,65.9,65.0,29.68,NNE,31,0.0,0.0,97,0.00,,,1.21,Wunderground v.1.15,2013-09-12 23:54:00,
2013-09-12 19:59:00,65.9,65.0,29.68,NNE,31,0.0,0.0,97,0.00,,,1.21,Wunderground v.1.15,2013-09-12 23:59:00,
2013-09-12 20:04:00,65.9,65.0,29.68,NNE,31,0.0,0.0,97,0.00,,,1.21,Wunderground v.1.15,2013-09-13 00:04:00,
2013-09-12 20:09:00,65.9,65.0,29.68,NNE,31,0.0,1.0,97,0.04,,,1.22,Wunderground v.1.15,2013-09-13 00:09:00,
2013-09-12 20:14:00,65.9,65.3,29.68,NNE,31,0.0,1.0,98,0.09,,,1.23,Wunderground v.1.15,2013-09-13 00:14:00,
2013-09-12 20:19:00,65.9,65.0,29.68,NNE,31,0.0,0.0,97,0.09,,,1.23,Wunderground v.1.15,2013-09-13 00:19:00,
2013-09-12 20:24:00,65.9,65.3,29.68,NNE,31,0.0,0.0,98,0.08,,,1.24,Wunderground v.1.15,2013-09-13 00:24:00,
2013-09-12 20:29:00,65.8,65.2,29.69,NNE,31,0.0,0.0,98,0.06,,,1.24,Wunderground v.1.15,2013-09-13 00:29:00,
2013-09-12 20:34:00,65.8,65.2,29.68,NNE,31,0.0,0.0,98,0.04,,,1.24,Wunderground v.1.15,2013-09-13 00:34:00,
2013-09-12 20:40:00,65.8,65.2,29.68,NNE,31,0.0,0.0,98,0.00,,,1.24,Wunderground v.1.15,2013-09-13 00:40:00,
2013-09-12 20:45:00,65.8,64.9,29.68,NNE,31,0.0,0.0,97,0.00,,,1.24,Wunderground v.1.15,2013-09-13 00:45:00,
2013-09-12 20:50:00,65.7,64.8,29.68,NNE,31,0.0,0.0,97,0.00,,,1.24,Wunderground v.1.15,2013-09-13 00:50:00,
2013-09-12 20:55:00,65.7,64.8,29.68,NNE,31,0.0,0.0,97,0.00,,,1.24,Wunderground v.1.15,2013-09-13 00:55:00,
2013-09-12 21:00:00,65.6,64.7,29.68,NNE,31,0.0,0.0,97,0.00,,,1.25,Wunderground v.1.15,2013-09-13 01:00:00,
2013-09-12 21:05:00,65.6,64.7,29.68,NNE,31,0.0,0.0,97,0.00,,,1.25,Wunderground v.1.15,2013-09-13 01:05:00,
2013-09-12 21:10:00,65.5,64.6,29.68,NNE,31,0.0,0.0,97,0.00,,,1.25,Wunderground v.1.15,2013-09-13 01:10:00,
2013-09-12 21:15:00,65.5,64.9,29.68,NNE,31,0.0,0.0,98,0.00,,,1.25,Wunderground v.1.15,2013-09-13 01:15:00,
2013-09-12 21:20:00,65.4,64.8,29.68,NNE,31,0.0,0.0,98,0.00,,,1.25,Wunderground v.1.15,2013-09-13 01:20:00,
2013-09-12 21:25:00,65.4,64.8,29.68,NNE,31,0.0,0.0,98,0.00,,,1.25,Wunderground v.1.15,2013-09-13 01:25:00,
2013-09-12 21:30:00,65.4,64.8,29.67,NNE,31,0.0,0.0,98,0.00,,,1.25,Wunderground v.1.15,2013-09-13 01:30:00,
2013-09-12 21:35:00,65.4,64.8,29.67,NNE,31,0.0,0.0,98,0.00,,,1.25,Wunderground v.1.15,2013-09-13 01:35:00,
2013-09-12 21:40:00,65.3,64.7,29.67,NNE,31,0.0,0.0,98,0.00,,,1.26,Wunderground v.1.15,2013-09-13 01:40:00,
2013-09-12 21:45:00,65.3,64.7,29.67,NNE,31,0.0,1.0,98,0.00,,,1.26,Wunderground v.1.15,2013-09-13 01:45:00,
2013-09-12 21:50:00,65.2,64.6,29.68,NNE,31,0.0,0.0,98,0.00,,,1.26,Wunderground v.1.15,2013-09-13 01:50:00,
2013-09-12 21:55:00,65.2,64.3,29.67,NNE,31,0.0,0.0,97,0.00,,,1.26,Wunderground v.1.15,2013-09-13 01:55:00,
2013-09-12 22:00:00,65.2,64.3,29.67,NNE,31,0.0,0.0,97,0.00,,,1.26,Wunderground v.1.15,2013-09-13 02:00:00,
2013-09-12 22:05:00,65.1,64.5,29.67,NNE,31,0.0,0.0,98,0.00,,,1.26,Wunderground v.1.15,2013-09-13 02:05:00,
2013-09-12 22:10:00,65.1,64.5,29.66,NNE,31,0.0,0.0,98,0.00,,,1.26,Wunderground v.1.15,2013-09-13 02:10:00,
2013-09-12 22:15:00,65.1,64.5,29.66,NNE,31,0.0,0.0,98,0.00,,,1.26,Wunderground v.1.15,2013-09-13 02:15:00,
2013-09-12 22:20:00,65.1,64.5,29.66,NNE,31,0.0,0.0,98,0.00,,,1.26,Wunderground v.1.15,2013-09-13 02:20:00,
2013-09-12 22:25:00,65.0,64.4,29.66,NNE,31,0.0,0.0,98,0.00,,,1.26,Wunderground v.1.15,2013-09-13 02:25:00,
2013-09-12 22:30:00,65.0,64.4,29.66,NNE,31,0.0,0.0,98,0.00,,,1.26,Wunderground v.1.15,2013-09-13 02:30:00,
2013-09-12 22:35:00,64.9,64.3,29.66,NNE,31,0.0,0.0,98,0.00,,,1.26,Wunderground v.1.15,2013-09-13 02:35:00,
2013-09-12 22:40:00,64.8,64.2,29.66,NNE,31,0.0,0.0,98,0.00,,,1.26,Wunderground v.1.15,2013-09-13 02:40:00,
2013-09-12 22:45:00,64.8,64.2,29.67,NNE,31,0.0,0.0,98,0.00,,,1.26,Wunderground v.1.15,2013-09-13 02:45:00,
2013-09-12 22:50:00,64.8,64.2,29.67,NNE,31,0.0,0.0,98,0.00,,,1.26,Wunderground v.1.15,2013-09-13 02:50:00,
2013-09-12 22:55:00,64.7,64.1,29.67,NNE,31,0.0,0.0,98,0.00,,,1.26,Wunderground v.1.15,2013-09-13 02:55:00,
2013-09-12 23:00:00,64.8,64.2,29.66,NNE,31,0.0,0.0,98,0.00,,,1.26,Wunderground v.1.15,2013-09-13 03:00:00,
2013-09-12 23:05:00,64.8,64.2,29.66,NNE,31,0.0,0.0,98,0.00,,,1.26,Wunderground v.1.15,2013-09-13 03:05:00,
2013-09-12 23:10:00,64.8,64.2,29.66,NNE,31,0.0,0.0,98,0.00,,,1.26,Wunderground v.1.15,2013-09-13 03:10:00,
2013-09-12 23:15:00,64.7,64.1,29.66,NNE,31,0.0,0.0,98,0.00,,,1.26,Wunderground v.1.15,2013-09-13 03:15:00,
2013-09-12 23:20:00,64.7,64.1,29.66,NNE,31,0.0,0.0,98,0.00,,,1.26,Wunderground v.1.15,2013-09-13 03:20:00,
2013-09-12 23:25:00,64.6,64.0,29.66,NNE,31,0.0,0.0,98,0.00,,,1.26,Wunderground v.1.15,2013-09-13 03:25:00,
2013-09-12 23:30:00,64.6,64.0,29.65,NNE,31,0.0,0.0,98,0.00,,,1.26,Wunderground v.1.15,2013-09-13 03:30:00,
2013-09-12 23:35:00,64.6,64.0,29.65,NNE,31,0.0,0.0,98,0.00,,,1.26,Wunderground v.1.15,2013-09-13 03:35:00,
2013-09-12 23:40:00,64.6,64.0,29.65,NNE,31,0.0,0.0,98,0.00,,,1.26,Wunderground v.1.15,2013-09-13 03:40:00,
2013-09-12 23:45:00,64.6,64.0,29.65,NNE,31,0.0,0.0,98,0.00,,,1.26,Wunderground v.1.15,2013-09-13 03:45:00,
2013-09-12 23:50:00,64.7,64.1,29.65,NW,304,1.0,2.0,98,0.00,,,1.26,Wunderground v.1.15,2013-09-13 03:50:00,
2013-09-12 23:55:00,64.7,64.1,29.64,West,280,0.0,2.0,98,0.00,,,1.26,Wunderground v.1.15,2013-09-13 03:55:00,